Md. Asadullah

Silver Star - 3,601 Points (11th july)

Stats

» Click to list general statistics » OR, select a date :

General Statistics

Visitors of the poet

Number of visitors of the poet’s mainpage in PoemHunter.Com

Attention : Numbers in this table does not indicate the total hits of poems of the poet, but indicates the hits of the poet’s main page.

Date Hits
04/24/2015 Friday 66
48%
04/23/2015 Thursday 26
19%
04/22/2015 Wednesday 27
19%
04/21/2015 Tuesday 74
54%
04/20/2015 Monday 63
46%
04/19/2015 Sunday 82
60%
04/18/2015 Saturday 91
66%
04/17/2015 Friday 63
46%
04/16/2015 Thursday 106
77%
04/15/2015 Wednesday 59
43%
04/14/2015 Tuesday 136
100%
04/13/2015 Monday 110
80%
04/12/2015 Sunday 62
45%
04/11/2015 Saturday 35
25%
04/10/2015 Friday 19
13%
04/09/2015 Thursday 24
17%
04/08/2015 Wednesday 16
11%
04/07/2015 Tuesday 42
30%
04/06/2015 Monday 62
45%
04/05/2015 Sunday 48
35%

Reader rating & num.of MyPoemList’s

Click the captions of columns to change the order.

# Poem Title Submit Date Reader Rating Num.of MyPoemList’s
Rating Num.R.
1 I Want To Be Alone 01/01/2014 10.0 1 1
2 Sounds And A Silence 09/28/2014 10.0 2 1
3 Delhi Zoo Tragedy 09/28/2014 10.0 2 0
4 Religions And Definitions Of God 09/28/2014 10.0 2 0
5 Quran And Microbes 09/29/2014 9.7 3 0
6 Nostalgia Ii 10/12/2014 10.0 2 0
7 Easiest Way To Kill An Enemy 10/15/2014 10.0 3 0
8 Love Perfect One 10/18/2014 10.0 2 0
9 Love For Allah 10/18/2014 10.0 1 0
10 Eyes 10/18/2014 10.0 2 0
11 Honest Opinions 10/19/2014 10.0 2 0
12 Words And Actions 10/19/2014 10.0 2 0
13 Son Of Adam 10/19/2014 10.0 4 0
14 Storm 10/23/2014 10.0 3 0
15 Diwali And Poor Child 10/23/2014 10.0 2 0
16 Yesterday On Bus 10/25/2014 10.0 4 0
17 Distorted Image 10/26/2014 10.0 2 0
18 Evil Eye 10/27/2014 7.5 2 0
19 Perceptions 10/27/2014 10.0 2 0
20 Playful Moon 11/30/2014 10.0 2 0
21 Widow 12/07/2014 10.0 2 0
22 Favour Of God 12/14/2014 10.0 3 0
23 Strings Of Hope 12/14/2014 10.0 4 0
24 Friend And Foe 01/01/2015 10.0 1 0
25 Paths Of Success 01/04/2015 10.0 1 0
26 Charlie Hebdo 01/18/2015 10.0 1 0
27 I Am Not Charlie 01/18/2015 10.0 1 0
28 Terrorism Condemned 01/01/2014 9.5 2 0
29 Night Shift 01/01/2014 10.0 1 0
30 Answering Atheism I 01/01/2014 10.0 1 0
31 Urdu - Dosti 01/01/2014 10.0 1 0
32 Urdu - 01/01/2014 10.0 1 0
33 Urdu - In Praise Of Prophet(Pbuh) 01/01/2014 10.0 1 0
34 Secret Sins 01/01/2014 10.0 1 0
35 Injustice And Patience 01/01/2014 10.0 1 0
36 Voice Against Terrorism. 01/01/2014 10.0 1 0
37 Accept Me Or Reject Me 01/01/2014 10.0 1 0
38 If......., Then 01/01/2014 10.0 2 0
39 Friend Found 01/01/2014 10.0 1 0
40 Secret Revealed 01/01/2014 10.0 1 0
41 Extra Initiative 01/01/2014 10.0 1 0
42 Islam The Touchstone 01/01/2014 10.0 1 0
43 Man Or Machine 01/01/2014 10.0 1 0
44 Lmdians 01/01/2014 10.0 1 0
45 Where Are You My Love, Where Are You? 01/01/2014 10.0 1 0
46 *reflection 01/01/2014 10.0 1 0
47 Suicide 01/01/2014 10.0 1 0
48 Cigarette Personified 01/01/2014 10.0 1 0
49 Islam 01/01/2014 10.0 1 0
50 Blessed Birth Of Prophet(Pbuh) 01/01/2014 10.0 1 0
51 Going Into Depression 01/01/2014 10.0 1 0
52 Silence Speaks 01/01/2014 10.0 1 0
53 Nostalgia 01/01/2014 10.0 1 0
54 Dance Of A Fakir 01/01/2014 10.0 1 0
55 I Am Man 01/01/2014 10.0 1 0
56 My Imagination 01/01/2014 10.0 1 0
57 Death 01/01/2014 10.0 1 0
58 Fantasy 01/01/2014 10.0 1 0
59 Jealousy 01/01/2014 10.0 1 0
60 Lie 01/01/2014 10.0 1 0
61 Rugby 01/01/2014 10.0 1 0
62 Salaat 01/01/2014 10.0 1 0
63 Temptation 01/01/2014 -- 0 0
64 Revolution 01/01/2014 10.0 1 0
65 In Search Of Fear 01/01/2014 10.0 1 0
66 Aimless I 01/01/2014 10.0 1 0
67 Bomb Blast 01/01/2014 10.0 1 0
68 Or Is That Me Who Is Sad? 01/01/2014 10.0 1 0
69 Unwritten Soul 01/01/2014 10.0 1 0
70 Have You Ever Seen It Brush? 01/01/2014 10.0 1 0
71 Revealed - My Patriotism 01/01/2014 10.0 1 0
72 Ant 01/01/2014 10.0 1 0
73 Through Windows Of Time 01/01/2014 10.0 1 0
74 A Muslim's Prayer 01/01/2014 10.0 2 0
75 A Meeting With Beloved Bapu(Gandhi) 01/01/2014 10.0 1 0
76 Aimless Iii 01/01/2014 10.0 1 0
77 Poem 01/01/2014 10.0 1 0
78 Way To My Destination 01/01/2014 10.0 1 0
79 Satan's Three Knots 01/01/2014 10.0 1 0
80 Sun And Doomsday 01/01/2014 10.0 1 0
81 Yesterday My Childhood Came 01/01/2014 10.0 1 0
82 What Is Life? 01/01/2014 10.0 1 0
83 All Praise Is Due To Allah 01/01/2014 10.0 2 0
84 Am I Still Alive? 01/01/2014 10.0 1 0
85 Love 01/01/2014 10.0 1 0
86 I Stand 'Tween Right And Wrong. 01/01/2014 10.0 1 0
87 Yes, I Confess... 01/01/2014 10.0 1 0
88 Answering Atheism Ii 01/01/2014 10.0 1 0
89 Blessed Birth Of Jesus(Pbuh) - [islamic Perspective] 01/01/2014 10.0 1 0
90 Elections 2014(Ii) 01/01/2014 10.0 1 0
91 Waliullah - Friend Of Allah(Swt) 01/01/2014 10.0 1 0
92 Aimless Ii 01/01/2014 10.0 1 0
93 My Enemy Let Us Compete 01/01/2014 10.0 1 0
94 Why I'Ve Reached My Destination So Late 01/01/2014 10.0 1 0
95 Inside Job! - 9/11 01/01/2014 10.0 1 0
96 Little By Little I See My Henna Plant Grow 01/01/2014 10.0 1 0
97 Destiny Is Like Shadow 01/01/2014 10.0 1 0
98 Elections 2014(I) 01/01/2014 10.0 1 0
99 Environment Friendly Poem 01/01/2014 10.0 1 0
100 I Doubt! 01/04/2014 10.0 2 0
101 Message On 12 Rabi Ul Awal 01/14/2014 10.0 1 0
102 Dead Leaves 01/18/2014 10.0 1 0
103 Broken Wings And Dead Smiles 01/19/2014 10.0 1 0
104 Truth's Naked Dance 01/26/2014 10.0 1 0
105 Death Will Be Put To Death! 02/02/2014 10.0 1 0
106 Spoken Words 02/02/2014 10.0 1 0
107 Soldier And Author 02/02/2014 10.0 1 0
108 Kill..... 02/08/2014 10.0 1 0
109 Elections 2014(Iii) 02/08/2014 10.0 1 0
110 Standing Amongst Stones... 02/15/2014 10.0 1 0
111 Homo Sapiens 02/15/2014 10.0 1 0
112 My Real Tongue 02/15/2014 10.0 1 0
113 Let's Show The Shiny Part 02/16/2014 10.0 1 0
114 Aimless Iv 02/16/2014 10.0 1 0
115 Two Breaths Of Hellfire 02/16/2014 10.0 3 0
116 Protest Against Double Standards 02/23/2014 10.0 1 0
117 Mercy 02/23/2014 10.0 1 0
118 Honest/Dishonest 03/01/2014 10.0 1 0
119 Burn All These 'Old Age Homes' 03/01/2014 10.0 1 0
120 Never Despise Any Old Book 03/03/2014 10.0 2 0
121 - -Quran 75. The Rising Of The Dead, Resurrection- - 03/05/2014 10.0 1 0
122 Urdu 1 03/02/2014 10.0 1 0
123 God's Mercy Prevails Over His Wrath. 03/01/2014 10.0 1 0
124 I Wished For Thousand Springs 03/01/2014 10.0 1 0
125 Buttering And Oiling 03/01/2014 10.0 1 0
126 Is It Something In Me..... 03/01/2014 10.0 1 0
127 English Translation Of My Urdu 1 Poem 03/14/2014 10.0 1 0
128 Freedom's Journey 03/17/2014 10.0 1 0
129 Declaration 03/17/2014 10.0 1 0
130 Let Me Give You This Shock(Global Warming) 03/15/2014 10.0 1 0
131 My Thoughts On Your Thoughts 03/15/2014 10.0 1 0
132 O East! 03/19/2014 10.0 1 0
133 Holi-Day And Holiday 03/19/2014 10.0 1 0
134 Character Certificates 03/19/2014 10.0 1 0
135 Sun, Moon And My Imagination 03/19/2014 10.0 2 0
136 O Tree Of Art! 03/19/2014 10.0 1 0
137 Effective Decision Making 03/14/2014 10.0 1 0
138 Wise Men! - A Piece Of Advice 03/21/2014 10.0 1 0
139 Pack Of Wolves And An Ass 03/14/2014 5.5 2 0
140 I Know How They Tame Wild Elephants 03/24/2014 10.0 1 0
141 Gandhiji's Statue 03/24/2014 10.0 1 0
142 Equal Doesn'T Mean Identical 03/29/2014 7.5 2 0
143 They All.. 03/31/2014 10.0 1 0
144 Agree Or Disagree 03/29/2014 10.0 2 0
145 Different Perspective 03/29/2014 10.0 1 0
146 Only One 04/02/2014 10.0 2 0
147 Color Unseen 04/02/2014 10.0 2 0
148 East, West, Best 04/02/2014 10.0 3 0
149 Talk/Walk 04/02/2014 10.0 1 0
150 Wall Of Ego 04/06/2014 10.0 2 0
151 It Could Be Within Us 04/06/2014 10.0 2 0
152 I Just Don'T Care 04/06/2014 10.0 1 0
153 Don'T Take Name Of Martyrs 04/20/2014 10.0 2 0
154 Destination 04/26/2014 10.0 2 0
155 Darwin's Theory(Science Or Fairy-Tale) 05/05/2014 8.5 4 0
156 Except One 05/11/2014 7.5 2 0
157 Today 05/11/2014 8.3 3 0
158 Helpless Finger! 06/22/2014 10.0 2 0
159 Ignorant Sufi Is Tool Of The Satan 07/20/2014 10.0 2 0
160 Gaza And The Warning 07/20/2014 10.0 1 0
161 Me, The Loner 07/20/2014 10.0 1 0
162 I Am Gaza, 'Mother Of All Prisons' 07/20/2014 9.3 3 0
163 Steel And Paper 08/03/2014 10.0 2 0
164 Tangible Beliefs 08/10/2014 10.0 2 0
165 Urdu- Ummat-E-Muslimah Ka Haal 08/10/2014 10.0 2 0
166 Foolish Act 08/10/2014 10.0 1 0
167 Wealthiest Of Them All 08/10/2014 10.0 1 0
168 Dealing With Cobra 08/15/2014 10.0 1 0
169 A Prayer 08/15/2014 10.0 1 0
170 Inadequacies Found 08/16/2014 10.0 1 0
171 Me, Me And Me Is What Makes We 08/16/2014 9.5 2 0
172 Inner Peace? 08/17/2014 9.3 3 0
173 She Feared.. 08/30/2014 9.5 2 0
174 Terror 08/30/2014 10.0 2 0
175 Ancient Mythologies And Verses Holy 08/30/2014 10.0 3 0
176 Mr Nice 09/01/2014 10.0 1 0
177 Failures My Friend 09/01/2014 10.0 1 0
178 Strife 09/02/2014 10.0 1 0
179 Misunderstanding 09/03/2014 10.0 1 0
180 Options 09/04/2014 10.0 1 0
181 Hidden Words 09/07/2014 10.0 1 0
182 Set Me Free 09/07/2014 10.0 1 0
183 Pain 09/07/2014 10.0 1 0
184 Pleasure In Pain 09/07/2014 10.0 1 0
185 Give Some Time 09/07/2014 10.0 1 0
186 Prying Eyes 09/07/2014 10.0 2 0
187 Hunting 09/07/2014 10.0 1 0
188 Trick 09/07/2014 10.0 1 0
189 Mad With Anger 09/07/2014 10.0 1 0
190 Drum Of Freedom 09/08/2014 10.0 4 0
191 Who Are They? Who Are They? [isis] 09/08/2014 10.0 1 0
192 In Tiny Heart.. 09/19/2014 10.0 3 0
193 Wake Up! 09/21/2014 10.0 4 0
194 Judgements 09/28/2014 10.0 3 0
[Hata Bildir]